RADUGA 26 [-]

Last updated on July 6, 2021, 3:35 p.m. UTC

1 21016U 90112A   21186.95175436 -.00000226  00000-0  00000+0 0  9991
2 21016  14.4010 351.7308 0008969  71.4431 292.3584  1.00234094112124
UTC
Height (km)
Latitude
Longitude
Inclination
Orbital Period
UTC large
Height (km)
Speed (km/s)
/
Latitude / Longitude
Inclination (degrees)
Orbital Period (minutes)
Azimuth
Elevation
Range (km)
Doppler Factor
iOS Compass Heading
iOS Angle